Regional Weather Roundup
Issued by NWS

Home | Current Version | Previous Version | Text Only | Print | Product List | Glossary Off
Versions: 1 2 3 4 5 6 7 8 9 10 11 12 13 14 15 16 17 18 19 20 21 22 23 24 25 26 27 28 29 30 31 32 33 34 35 36 37 38 39 40 41 42 43 44 45 46 47 48 49 50

000
ASUS45 KBOU 020007
RWRCO

WEATHER ROUNDUP FOR COLORADO
NATIONAL WEATHER SERVICE DENVER/BOULDER CO
600 PM MDT MON JUN 01 2015

NOTE: "FAIR" INDICATES FEW OR NO CLOUDS BELOW 12000 FEET WITH NO
SIGNIFICANT WEATHER AND/OR OBSTRUCTIONS TO VISIBILITY.

COZ001>005-013-030-031-020100-
...NORTHWEST COLORADO...

CITY           SKY/WX    TMP DP  RH WIND       PRES   REMARKS
CRAIG          MOSUNNY   80  44  27 SW15      29.99F
HAYDEN         MOSUNNY   73  45  35 E10       30.04S
MEEKER         MOSUNNY   82  35  18 SW13G24   30.01F
MOUNT WERNER   NOT AVBL
STEAMBOAT SPGS MOSUNNY   66  44  45 NE10      30.07F
WALDEN         CLOUDY    57  36  44 S23G35    30.20F
$$

COZ006>008-011-020100-
...WEST CENTRAL VALLEYS...

CITY           SKY/WX    TMP DP  RH WIND       PRES   REMARKS
GRAND JUNCTION MOSUNNY   88  30  12 SW16G24   29.88F
MONTROSE       MOSUNNY   87  29  12 W15G22    30.00F
EAGLE          MOSUNNY   79  48  34 E9        30.08F
RIFLE          LGT RAIN  84  33  16 SW14G35   29.94F
DELTA          MOSUNNY   91  29  11 SW18G25   29.94F
NUCLA          MOSUNNY   86  27  11 S20G31    30.04F
$$

COZ017>023-064>068-020100-
...SOUTHWEST COLORADO...

CITY           SKY/WX    TMP DP  RH WIND       PRES   REMARKS
DURANGO        MOSUNNY   80  33  18 W10       30.11F
CORTEZ         SUNNY     85  31  14 S14       30.04F
PAGOSA SPRINGS MOSUNNY   76  26  16 SW6       30.20F
TELLURIDE      CLOUDY    67  31  26 S8G17     30.32S
WOLF CREEK PAS NOT AVBL
$$

COZ009-010-012-014-032>034-037-058>063-020100-
...CENTRAL COLORADO...

CITY           SKY/WX    TMP DP  RH WIND       PRES   REMARKS
ASPEN          MOSUNNY   74  32  21 S20       30.16F
BUENA VISTA    MOSUNNY   68  32  26 SE10G16   30.23F
COPPER MTN     PTSUNNY   54  30  40 SW14G23   30.51R
BERTHOUD PASS  FAIR      43  36  75 MISG      30.54S
COTTONWOOD PAS NOT AVBL
GUNNISON       CLOUDY    64  39  39 NE8G16    30.24F
KREMMLING      PTSUNNY   73  36  25 NW7       30.14R
LEADVILLE      PTSUNNY   63  27  25 W6        30.33F
MONARCH PASS   PTSUNNY   45  32  61 SW12      30.62F
SALIDA         MOSUNNY   70  36  29 S12G20    30.28F
SUNLIGHT       MOSUNNY   61  30  31 SW3       30.39F
WILKERSON PASS PTSUNNY   55  28  35 MISG      30.47F
$$

COZ069>075-020100-
...SAN LUIS VALLEY/SANGRE DE CRISTO MOUNTAINS...

CITY           SKY/WX    TMP DP  RH WIND       PRES   REMARKS
ALAMOSA        PTSUNNY   70  40  33 E16       30.20F
LA VETA PASS   PTSUNNY  N/A N/A N/A MISG      30.39F
SAGUACHE       PTSUNNY   66  43  42 S9        30.25F
$$

COZ035-036-038>040-020100-
...NORTHERN COLORADO FRONT RANGE...

CITY           SKY/WX    TMP DP  RH WIND       PRES   REMARKS
DENVER INTL AP PTSUNNY   73  45  36 S10       30.05R
DMNS CITY PARK   N/A     73  46  37 E7G13     30.04F
AURORA         NOT AVBL
FRONT RANGE AP PTSUNNY   77  43  29 SE17      30.05S
ERIE MUNI ARPT PTSUNNY   78  40  25 S13G32    30.00F
BOULDER MUN AP PTSUNNY   77  43  29 S10       30.01F
CENTENNIAL     TSTM      72  47  40 S18G31    30.08R
BROOMFIELD     PTSUNNY   73  48  40 NE3       30.07S
FORT COLLINS   CLOUDY    79  52  38 S13       29.97F
LONGMONT       CLOUDY    83  47  27 S9        30.01F
$$

COZ041-046-047-076>085-087-088-020100-
...PIKES PEAK/PALMER DIVIDE AND SOUTHERN FOOTHILLS...

CITY           SKY/WX    TMP DP  RH WIND       PRES   REMARKS
COLO. SPRINGS  PTSUNNY   72  40  31 NW12      30.13R THUNDER
A. F. ACADEMY  NOT AVBL
ELLICOTT       PTSUNNY  N/A N/A N/A E10       30.08F THUNDER
FALCON         PTSUNNY   70  41  35 SW10      30.18R
FORT CARSON    NOT AVBL
LIMON          CLOUDY    75  49  39 E6        30.05F
MONUMENT HILL  PTSUNNY   64  43  45 SE20G30   30.18R
TRINIDAD       CLOUDY    77  52  41 S6        30.05F
$$

COZ042>045-048>051-090-091-020100-
...NORTHEAST COLORADO...

CITY           SKY/WX    TMP DP  RH WIND       PRES   REMARKS
GREELEY ARPT   PTSUNNY   81  52  36 S12G18    29.97F
AKRON          CLOUDY    75  50  41 S15G22    29.96F
BURLINGTON     MOSUNNY   80  57  45 SE15      30.00S
WRAY           MOSUNNY   83  59  44 SE15G22   29.95F
STERLING       CLOUDY    79  54  41 S13       29.91F
HOLYOKE        NOT AVBL
FORT MORGAN    CLOUDY   N/A N/A N/A SW13      29.95F
$$

COZ086-089-092>099-020100-
...SOUTHEAST COLORADO...

CITY           SKY/WX    TMP DP  RH WIND       PRES   REMARKS
PUEBLO         PTSUNNY   75  60  59 SW12      30.01R
LA JUNTA       MOSUNNY   87  52  29 MISG      29.93F
LAMAR          PTSUNNY   88  58  36 S20G26    29.92F
SPRINGFIELD      N/A     77  57  50 S16       30.02S
$$



USA.gov is the U.S. government's official web portal to all federal, state and local government web resources and services.